Date,TemperatureHighF,TemperatureAvgF,TemperatureLowF,DewpointHighF,DewpointAvgF,DewpointLowF,HumidityHigh,HumidityAvg,HumidityLow,PressureMaxIn,PressureMinIn,WindSpeedMaxMPH,WindSpeedAvgMPH,GustSpeedMaxMPH,PrecipitationSumIn
2013-1-1,31.0,23.2,9.6,28.0,16.4,3.0,94,76,56,29.73,29.50,12,2,20,0.00
2013-1-2,16.2,8.7,2.2,5.0,0.0,-6.0,79,68,55,29.92,29.72,11,2,17,0.00
2013-1-3,18.4,8.8,-0.3,7.0,0.8,-6.0,82,70,55,29.99,29.86,4,0,11,0.00
2013-1-4,33.7,22.1,6.5,27.0,17.8,4.0,94,84,75,29.86,29.62,8,2,14,0.00
2013-1-5,33.0,25.6,9.5,28.0,15.5,5.0,87,67,46,30.21,29.61,12,2,20,0.01
2013-1-6,27.1,20.0,10.4,25.0,17.7,6.0,96,91,69,30.17,29.84,10,3,13,0.00
2013-1-7,23.4,16.4,8.6,22.0,11.7,5.0,93,82,60,30.35,29.89,21,7,26,0.00
2013-1-8,40.4,32.2,18.5,32.0,26.3,15.0,96,79,63,30.29,30.09,16,2,16,0.03
2013-1-9,40.1,33.0,21.0,38.0,30.3,20.0,96,89,80,30.34,29.75,6,1,12,0.03
2013-1-10,42.3,36.7,26.3,32.0,26.5,20.0,84,67,53,30.43,29.75,15,4,26,0.00
2013-1-11,35.2,30.0,25.2,28.0,21.4,17.0,85,71,54,30.45,30.21,9,2,14,0.00
2013-1-12,40.6,36.3,32.3,37.0,32.5,26.0,96,86,74,30.22,30.03,4,0,5,0.00
2013-1-13,45.4,40.5,36.8,45.0,40.2,36.0,100,99,96,30.07,29.88,3,0,9,0.02
2013-1-14,51.6,43.8,35.5,50.0,40.3,25.0,100,89,57,30.12,29.78,6,1,15,0.01
2013-1-15,36.9,32.0,26.8,27.0,23.6,20.0,90,72,57,30.24,30.11,7,1,12,0.00
2013-1-16,35.9,31.9,28.9,35.0,28.2,18.0,98,87,62,30.21,29.68,9,3,11,0.16
2013-1-17,39.7,30.1,12.1,37.0,21.5,-9.0,98,73,34,30.07,29.65,13,3,20,0.02
2013-1-18,16.3,11.2,5.2,3.0,-3.2,-11.0,69,53,38,30.32,30.05,16,4,21,0.00
2013-1-19,34.0,27.7,15.1,31.0,23.7,4.0,96,86,55,30.30,29.84,6,1,12,0.03
2013-1-20,47.0,37.2,23.7,41.0,29.4,7.0,99,76,47,29.83,29.35,11,3,20,0.10
2013-1-21,22.2,18.3,12.8,15.0,2.4,-4.0,87,51,33,29.96,29.73,10,3,20,0.00
2013-1-22,18.1,12.1,5.5,15.0,2.6,-8.0,88,66,47,29.89,29.71,19,8,25,0.00
2013-1-23,8.0,2.7,-2.7,-9.0,-12.5,-15.0,58,50,37,29.96,29.89,17,3,17,0.00
2013-1-24,10.8,3.2,-3.5,-7.0,-11.0,-14.0,62,53,38,29.97,29.78,12,2,18,0.00
2013-1-25,20.0,11.2,2.4,2.0,-1.8,-8.0,68,57,40,30.08,29.96,8,2,15,0.00
2013-1-26,17.9,12.5,7.7,3.0,-1.5,-5.0,68,54,37,30.01,29.87,14,3,19,0.00
2013-1-27,22.7,14.8,7.6,7.0,1.9,-3.0,68,57,48,30.29,29.99,10,2,17,0.00
2013-1-28,26.3,19.0,9.6,22.0,5.2,-2.0,90,57,32,30.32,30.01,4,1,12,0.00
2013-1-29,34.0,26.5,17.1,26.0,20.6,14.0,91,79,65,30.16,30.00,8,1,9,0.00
2013-1-30,52.0,43.3,30.9,52.0,42.5,26.0,99,96,82,30.11,29.40,12,3,20,0.35
2013-1-31,53.1,51.4,50.5,53.0,51.1,50.0,99,98,97,29.39,28.90,13,6,28,0.27
2013-2-1,23.9,18.3,13.2,7.0,4.4,3.0,64,55,44,29.93,29.66,12,1,13,0.00
2013-2-2,24.9,18.2,9.0,19.0,6.1,-1.0,85,60,42,30.13,29.93,7,1,13,0.00
2013-2-3,29.2,24.0,20.9,23.0,20.1,16.0,94,85,75,30.00,29.58,25,10,26,0.00
2013-2-4,27.1,21.0,14.4,16.0,8.6,-6.0,84,61,39,29.75,29.49,13,3,20,0.00
2013-2-5,21.7,15.5,9.1,8.0,-2.3,-6.0,66,46,31,29.97,29.75,11,2,14,0.00
2013-2-6,33.8,22.6,14.5,28.0,12.6,1.0,91,67,40,30.17,29.84,9,3,13,0.01
2013-2-7,15.9,10.2,5.3,-1.0,-7.1,-14.0,63,47,29,30.55,30.18,14,3,18,0.00
2013-2-8,20.7,13.4,5.8,17.0,7.6,-6.0,93,78,55,30.55,29.85,33,14,37,0.01
2013-2-9,18.9,15.9,13.5,17.0,12.5,-99.9,94,89,83,29.95,29.56,49,11,61,0.00
2013-2-10,31.7,20.5,12.5,19.0,12.1,7.0,87,71,55,30.28,29.96,19,1,25,0.00
2013-2-11,40.9,25.7,9.6,40.0,23.2,6.0,98,90,77,30.27,29.48,6,0,13,0.36
2013-2-12,41.8,36.9,33.1,37.0,32.9,30.0,99,86,70,29.65,29.41,7,1,14,0.02
2013-2-13,41.0,34.3,27.9,30.0,27.8,26.0,93,78,56,29.71,29.63,8,0,14,0.00
2013-2-14,38.4,31.5,23.6,30.0,22.7,19.0,91,71,48,29.94,29.64,14,3,20,0.00
2013-2-15,43.8,33.6,22.8,38.0,30.6,21.0,97,88,77,29.94,29.85,17,1,17,0.00
2013-2-16,35.1,31.7,26.2,35.0,30.4,25.0,98,94,85,29.86,29.68,13,4,22,0.00
2013-2-17,26.0,22.1,18.4,25.0,19.6,13.0,96,90,75,29.67,28.91,22,9,40,0.01
2013-2-18,28.0,21.2,15.6,13.0,6.3,4.0,78,53,42,29.84,29.19,14,3,26,0.00
2013-2-19,41.0,30.2,18.0,39.0,17.0,3.0,94,60,29,30.01,29.64,10,1,14,0.04
2013-2-20,43.3,36.8,29.3,42.0,30.8,19.0,97,80,61,29.62,29.30,14,1,22,0.48
2013-2-21,34.9,28.7,23.4,30.0,20.9,14.0,88,73,60,30.00,29.50,28,4,36,0.01
2013-2-22,36.4,31.4,25.1,27.0,23.7,20.0,84,73,56,30.30,30.01,19,8,28,0.00
2013-2-23,32.0,29.8,24.8,28.0,26.1,23.0,92,86,81,30.29,30.00,9,3,11,0.00
2013-2-24,32.7,29.8,27.2,29.0,28.0,25.0,97,93,80,30.00,29.72,17,8,19,0.00
2013-2-25,37.8,27.8,20.8,25.0,19.0,11.0,92,71,33,30.16,29.80,17,5,23,0.00
2013-2-26,41.7,30.5,20.5,31.0,24.1,17.0,93,78,59,30.29,30.17,5,0,8,0.00
2013-2-27,38.3,32.7,25.4,32.0,29.1,24.0,98,87,71,30.22,29.69,21,8,29,0.00
2013-2-28,39.0,36.3,32.9,38.0,35.6,32.0,98,97,95,29.67,29.44,27,12,31,0.16
2013-3-1,34.1,32.2,30.9,33.0,31.2,30.0,97,96,94,29.55,29.43,17,8,21,0.02
2013-3-2,37.6,34.0,31.5,35.0,32.2,29.0,97,93,87,29.53,29.48,9,2,16,0.14
2013-3-3,42.3,36.5,33.5,37.0,34.5,32.0,97,92,80,29.50,29.39,8,1,11,0.01
2013-3-4,36.5,33.6,31.6,35.0,32.0,30.0,97,94,89,29.56,29.34,16,4,19,0.18
2013-3-5,40.6,36.6,34.3,36.0,34.6,33.0,96,92,83,30.06,29.57,17,12,22,0.01
2013-3-6,37.5,34.9,33.0,34.0,30.0,27.0,92,83,74,30.21,30.07,21,14,29,0.00
2013-3-7,37.3,34.2,32.7,29.0,27.8,27.0,81,77,69,30.18,30.01,29,19,32,0.00
2013-3-8,42.9,36.1,31.9,29.0,27.5,26.0,83,72,54,30.13,29.98,28,21,35,0.00
2013-3-9,39.7,33.7,28.8,31.0,27.4,25.0,86,78,65,30.32,30.12,21,12,26,0.00
2013-3-10,37.8,31.3,28.3,30.0,26.5,24.0,88,82,64,30.37,30.25,10,2,12,0.00
2013-3-11,42.4,38.6,33.6,39.0,35.4,30.0,95,88,80,30.25,30.11,10,1,16,0.00
2013-3-12,49.8,44.8,40.1,46.0,42.6,39.0,97,92,81,30.12,29.78,8,2,17,0.36
2013-3-13,48.8,43.0,31.2,48.0,41.9,30.0,99,96,87,29.76,29.55,11,2,18,0.70
2013-3-14,43.2,33.8,24.8,31.0,26.9,20.0,95,78,49,29.61,29.52,8,1,14,0.00
2013-3-15,34.0,25.6,18.8,20.0,14.2,9.0,84,64,37,29.67,29.51,11,2,15,0.02
2013-3-16,34.4,28.5,22.5,23.0,16.3,11.0,86,62,39,29.81,29.53,8,1,16,0.00
2013-3-17,30.6,23.7,16.9,13.0,6.7,-2.0,81,51,30,30.20,29.81,18,2,21,0.00
2013-3-18,33.3,23.2,13.2,20.0,4.0,-3.0,75,45,28,30.35,30.21,7,1,15,0.00
2013-3-19,30.4,26.9,24.4,26.0,21.5,13.0,97,82,50,30.23,29.57,28,11,32,0.00
2013-3-20,33.1,26.4,18.6,31.0,24.0,17.0,97,90,82,29.62,29.47,24,5,31,0.06
2013-3-21,38.0,31.5,23.7,29.0,24.8,20.0,93,77,52,29.70,29.52,5,1,12,0.00
2013-3-22,37.6,29.3,24.5,28.0,22.7,20.0,92,77,57,29.52,29.49,14,4,17,0.00
2013-4-29,62.0,51.8,39.2,46.0,41.5,35.0,96,70,37,30.23,30.17,5,1,9,0.00
2013-4-30,64.8,49.3,35.4,47.0,38.5,32.0,98,71,33,30.30,30.20,6,1,11,0.00
2013-5-1,64.8,49.3,35.9,46.0,37.2,29.0,97,69,30,30.40,30.31,8,1,10,0.00
2013-5-2,61.0,48.8,38.6,47.0,41.5,38.0,97,77,50,30.48,30.36,9,3,13,0.00
2013-5-3,63.4,50.1,42.0,48.0,42.0,39.0,89,75,53,30.49,30.31,13,4,16,0.00
2013-5-4,57.6,47.1,37.3,43.0,38.5,35.0,92,73,52,30.35,30.26,11,3,12,0.00
2013-5-5,56.8,45.6,34.2,45.0,39.1,33.0,97,80,56,30.27,30.19,9,1,13,0.00
2013-5-6,57.0,46.7,35.8,48.0,42.1,35.0,98,85,63,30.22,30.12,7,1,13,0.00
2013-5-7,64.9,50.4,42.3,53.0,47.0,42.0,99,89,64,30.12,30.04,7,1,11,0.00
2013-5-8,68.5,55.8,46.7,61.0,53.2,46.0,99,91,74,30.20,30.11,5,1,11,0.00
2013-5-9,57.5,53.8,50.3,57.0,53.0,50.0,99,97,95,30.10,29.86,12,1,13,0.96
2013-5-10,63.1,53.9,49.2,60.0,52.8,48.0,100,96,84,29.91,29.83,6,1,10,0.97
2013-5-11,56.1,52.2,48.9,56.0,51.7,48.0,99,98,92,29.90,29.66,9,2,16,0.16
2013-5-12,56.7,52.3,47.7,57.0,52.2,47.0,100,99,97,29.65,29.46,4,0,11,0.46
2013-5-13,55.1,48.4,40.5,47.0,40.0,36.0,99,75,52,29.92,29.63,12,2,17,0.47
2013-5-14,54.4,47.9,41.5,41.0,35.9,33.0,93,64,46,29.93,29.84,10,2,14,0.00
2013-5-15,60.9,48.8,36.1,47.0,37.9,31.0,97,70,34,29.92,29.65,8,2,17,0.26
2013-5-16,68.3,55.1,47.6,56.0,49.9,44.0,98,84,59,29.69,29.49,9,2,14,0.27
2013-5-17,58.4,51.4,42.1,46.0,42.1,39.0,89,72,51,30.12,29.69,15,4,23,0.00
2013-5-18,58.8,47.1,38.1,47.0,41.1,37.0,96,80,57,30.29,30.13,8,2,15,0.00
2013-5-19,58.3,48.8,38.1,48.0,44.0,37.0,97,84,61,30.33,30.20,6,2,9,0.00
2013-5-20,56.2,52.0,49.4,55.0,51.1,48.0,98,96,94,30.20,29.88,10,2,15,0.71
2013-5-21,50.3,49.3,48.2,50.0,48.5,48.0,99,97,94,30.01,29.93,9,3,11,0.09
2013-5-22,51.2,49.6,47.8,50.0,49.0,47.0,98,97,95,29.99,29.88,18,6,19,0.25
2013-5-23,59.7,53.1,47.1,60.0,52.7,47.0,99,98,92,29.90,29.77,12,1,16,0.25
2013-5-24,60.4,56.2,51.3,60.0,55.9,50.0,100,99,93,29.78,29.61,18,3,21,1.26
2013-5-25,51.6,50.2,48.2,51.0,49.7,48.0,99,97,94,29.76,29.64,19,13,25,0.20
2013-5-26,49.7,47.8,43.1,49.0,46.6,42.0,99,95,88,29.84,29.56,10,2,13,0.26
2013-5-27,65.1,51.2,41.5,48.0,41.8,35.0,96,73,34,30.09,29.84,9,2,14,0.27
2013-5-28,68.9,53.5,38.6,53.0,43.0,36.0,98,72,33,30.17,30.10,7,1,11,0.00
2013-5-29,54.1,50.7,44.7,54.0,49.9,43.0,99,97,88,30.18,29.93,6,1,7,0.40
2013-5-30,76.7,60.4,50.7,68.0,57.9,51.0,100,91,69,29.95,29.88,5,1,8,0.02
2013-5-31,85.9,69.2,54.0,69.0,61.3,54.0,99,78,48,29.96,29.80,7,1,12,0.00
2013-6-1,82.0,68.4,59.1,73.0,62.3,57.0,97,82,61,29.85,29.75,5,1,13,0.00
2013-6-2,70.9,63.9,57.9,64.0,59.8,56.0,95,86,78,29.75,29.66,7,1,14,0.00
2013-6-3,68.2,60.4,56.1,64.0,58.7,55.0,98,94,81,29.77,29.64,6,1,9,0.02
2013-6-4,65.7,58.8,49.1,58.0,47.4,41.0,98,68,44,29.93,29.68,7,2,16,0.02
2013-6-5,68.0,57.6,46.2,51.0,44.7,38.0,87,64,38,30.08,29.94,9,2,13,0.00
2013-6-6,67.8,56.7,46.6,53.0,48.4,39.0,96,76,35,30.15,30.08,5,0,10,0.00
2013-6-7,60.9,55.9,52.7,54.0,50.3,43.0,96,83,52,30.11,29.93,10,4,13,0.20
2013-6-8,61.8,56.9,53.1,59.0,55.3,52.0,98,94,84,29.93,29.56,20,8,26,1.10
2013-6-9,63.2,56.7,51.4,59.0,53.8,50.0,97,90,80,30.05,29.89,5,1,10,1.10
2013-6-10,68.1,59.1,52.8,60.0,54.0,51.0,98,84,63,30.14,29.99,6,1,10,0.00
2013-6-11,55.3,54.2,52.5,55.0,53.2,52.0,97,96,93,29.99,29.46,19,9,26,0.30
2013-6-12,58.6,55.4,52.1,57.0,54.4,52.0,99,96,91,29.63,29.40,17,9,23,0.29
2013-6-13,68.4,57.8,52.0,57.0,53.1,51.0,97,85,63,29.72,29.63,11,2,18,0.44
2013-6-14,62.0,56.1,51.0,56.0,51.8,48.0,98,86,68,29.67,29.60,5,1,7,0.00
2013-6-15,75.1,62.0,46.5,53.0,47.3,42.0,98,64,33,29.79,29.64,10,2,21,0.01
2013-6-16,73.5,60.8,50.5,57.0,52.8,48.0,92,77,51,29.82,29.66,5,1,9,0.01
2013-6-17,77.1,63.5,56.5,63.0,58.4,55.0,97,85,57,29.77,29.64,8,1,13,0.19
2013-6-18,69.2,61.3,54.8,57.0,54.4,50.0,98,80,52,29.88,29.75,5,0,9,0.00
2013-6-19,72.2,62.1,53.0,55.0,49.8,42.0,94,68,35,30.04,29.84,15,4,17,0.00
2013-6-20,73.5,60.2,47.6,57.0,52.2,47.0,97,77,48,30.17,30.05,8,1,11,0.00
2013-6-21,75.5,62.7,54.4,63.0,56.1,53.0,96,81,49,30.15,30.08,4,1,9,0.00
2013-6-22,74.2,63.2,55.3,66.0,59.2,53.0,97,87,71,30.12,30.04,4,0,5,0.00
2013-6-23,69.5,61.5,55.9,65.0,59.7,55.0,97,93,82,30.07,29.88,4,1,9,0.23
2013-6-24,85.5,72.9,60.9,74.0,67.6,60.0,99,84,62,29.88,29.71,9,1,10,0.00
2013-6-25,85.9,73.5,65.0,73.0,67.0,63.0,97,81,58,29.76,29.62,6,1,10,0.43
2013-6-26,70.7,65.1,59.2,70.0,64.2,58.0,99,97,93,29.81,29.62,13,4,19,0.08
2013-6-27,60.6,57.4,54.8,58.0,56.0,54.0,99,95,91,29.84,29.79,11,5,15,0.01
2013-6-28,62.0,58.8,56.5,62.0,58.5,56.0,100,99,98,29.81,29.54,21,8,27,1.21
2013-6-29,64.4,60.9,58.4,64.0,60.9,58.0,100,100,100,29.65,29.52,4,1,11,0.04
2013-6-30,66.5,61.8,59.4,66.0,61.6,59.0,100,99,94,29.87,29.65,3,1,13,0.04
2013-7-1,73.9,65.2,60.0,71.0,64.3,60.0,100,97,88,30.04,29.86,4,1,6,0.03
2013-7-2,66.0,61.2,58.1,66.0,60.3,57.0,99,96,93,30.15,30.03,12,7,17,0.34
2013-7-3,71.7,63.3,57.8,66.0,60.9,57.0,98,92,81,30.12,30.03,6,1,8,0.34
2013-7-4,87.9,73.4,59.5,73.0,67.1,59.0,99,83,55,30.07,29.97,8,1,11,0.00
2013-7-5,89.3,77.2,64.5,75.0,70.2,64.0,99,81,58,30.00,29.91,8,1,11,0.00
2013-7-6,87.0,76.4,67.2,74.0,70.1,65.0,99,82,59,29.93,29.82,6,1,10,0.00
2013-7-7,88.2,78.1,67.1,71.0,66.6,63.0,87,69,46,29.86,29.79,7,1,13,0.00
2013-7-8,74.5,68.1,61.1,69.0,63.5,55.0,95,85,66,30.00,29.83,12,4,16,0.00
2013-7-9,67.7,64.5,61.4,65.0,62.4,58.0,96,93,82,30.06,30.00,9,3,11,0.00
2013-7-10,67.7,64.0,61.0,64.0,62.2,60.0,99,94,87,30.03,29.72,4,1,8,0.00
2013-7-11,73.3,67.4,63.1,71.0,66.4,63.0,100,97,85,29.88,29.68,5,0,10,0.03
2013-7-12,77.7,68.6,59.8,67.0,61.2,58.0,98,78,55,30.14,29.88,17,5,19,0.03
2013-7-13,79.3,67.7,56.7,66.0,60.7,56.0,98,80,55,30.24,30.14,5,1,8,0.00
2013-7-14,85.8,71.1,58.9,71.0,64.5,58.0,98,81,53,30.20,30.09,5,1,7,0.00
2013-7-15,91.1,75.1,61.7,73.0,66.7,61.0,98,78,40,30.10,29.95,6,1,8,0.00
2013-7-16,87.8,75.6,67.0,75.0,68.2,61.0,94,79,55,30.11,29.98,6,2,11,0.00
2013-7-17,75.5,69.3,63.9,68.0,63.8,60.0,96,83,73,30.12,29.85,5,1,10,0.11
2013-7-18,82.7,73.2,66.5,71.0,66.2,62.0,99,80,51,29.92,29.82,12,2,14,0.02
2013-7-19,83.1,71.6,65.3,75.0,68.5,65.0,98,90,73,29.88,29.55,5,1,12,0.00
2013-7-20,85.5,75.9,67.0,75.0,70.0,66.0,96,83,65,29.65,29.50,9,1,16,0.26
2013-7-21,73.3,65.9,57.1,65.0,58.0,55.0,93,76,62,29.96,29.69,7,1,10,0.26
2013-7-22,72.4,63.5,55.9,64.0,58.1,54.0,98,83,61,29.98,29.89,4,0,7,0.00
2013-7-23,67.0,63.4,59.8,67.0,62.8,59.0,100,98,93,29.88,29.46,12,3,13,0.94
2013-7-24,76.3,68.3,60.8,72.0,65.1,53.0,100,90,71,29.89,29.47,7,1,12,0.01
2013-7-25,72.1,62.5,56.8,61.0,56.4,51.0,96,81,61,30.06,29.89,17,4,19,0.02
2013-7-26,65.9,63.9,61.6,66.0,63.5,60.0,100,98,95,30.01,29.77,10,6,16,1.28
2013-7-27,78.9,68.0,60.4,69.0,63.8,59.0,99,87,66,29.98,29.76,8,1,13,0.01
2013-7-28,69.4,63.9,59.0,66.0,62.7,58.0,99,96,87,30.01,29.95,6,2,8,0.08
2013-7-29,70.9,65.2,61.3,67.0,63.8,61.0,99,95,86,30.00,29.92,7,1,8,0.08
2013-7-30,78.2,67.8,61.3,68.0,63.4,60.0,100,87,56,29.98,29.91,6,1,11,0.01
2013-7-31,79.2,67.2,57.2,64.0,59.0,56.0,95,77,50,30.02,29.95,9,2,12,0.01
2013-8-1,76.6,65.5,57.0,67.0,61.8,57.0,99,88,69,29.98,29.85,4,1,10,0.00
2013-8-2,66.9,64.0,60.0,66.0,63.6,59.0,99,98,97,29.84,29.70,4,1,7,0.27
2013-8-3,73.9,64.3,59.0,67.0,62.2,59.0,100,93,72,29.75,29.64,7,1,10,0.03
2013-8-4,77.1,65.7,57.0,65.0,60.0,56.0,99,83,60,29.71,29.63,7,1,15,0.01
2013-8-5,70.8,62.5,54.4,58.0,54.4,51.0,90,76,58,29.92,29.69,7,2,15,0.01
2013-8-6,75.3,62.8,50.1,61.0,54.1,48.0,91,75,54,30.08,29.92,7,1,11,0.00
2013-8-7,73.2,62.9,52.8,63.0,56.5,51.0,98,81,53,30.13,30.07,5,2,8,0.00
2013-8-8,64.3,61.6,57.2,63.0,60.8,57.0,98,97,94,30.09,29.98,5,1,8,0.17
2013-8-9,67.8,64.7,62.7,68.0,64.7,63.0,100,99,99,29.98,29.61,6,1,15,1.35
2013-8-10,78.8,69.5,56.2,71.0,61.0,52.0,100,77,44,29.88,29.62,9,2,15,1.35
2013-8-11,76.8,64.0,51.9,60.0,55.0,50.0,95,75,48,29.94,29.86,8,2,11,0.00
2013-8-12,77.5,64.6,55.7,66.0,59.1,54.0,98,84,59,29.92,29.82,5,1,11,0.00
2013-8-13,69.5,63.2,56.0,67.0,62.0,56.0,99,95,88,29.84,29.64,4,1,8,0.00
2013-8-14,71.8,64.1,58.8,67.0,61.1,51.0,99,91,67,29.74,29.53,4,1,11,0.00
2013-8-15,74.5,63.1,51.1,58.0,54.2,49.0,94,74,52,30.00,29.74,10,2,14,0.00
2013-8-16,75.1,62.6,53.9,61.0,57.2,53.0,98,84,53,30.11,29.99,4,1,10,0.00
2013-8-17,76.2,64.3,53.8,62.0,57.0,53.0,99,79,48,30.19,30.11,11,2,13,0.01
2013-8-18,75.4,63.5,53.3,63.0,58.1,53.0,98,84,55,30.19,29.96,5,1,9,0.01
2013-8-19,82.0,68.9,56.9,68.0,62.4,56.0,99,82,56,29.96,29.77,7,1,12,0.01
2013-8-20,83.0,69.6,62.0,69.0,64.0,60.0,97,83,61,29.99,29.84,6,1,8,0.01
2013-8-21,81.8,69.5,59.1,70.0,63.4,59.0,99,82,63,30.04,29.91,4,1,7,0.00
2013-8-22,81.9,69.5,60.0,70.0,64.7,60.0,98,85,64,29.91,29.67,5,1,10,0.00
2013-8-23,74.4,66.9,55.4,67.0,58.7,51.0,98,77,51,30.05,29.67,11,3,24,0.01
2013-8-24,73.0,60.9,48.9,58.0,52.5,47.0,95,76,42,30.21,30.06,10,3,13,0.00
2013-8-25,75.9,61.2,49.4,61.0,54.1,49.0,98,80,51,30.27,30.08,4,1,10,0.00
2013-8-26,70.8,63.2,56.6,65.0,60.9,54.0,98,92,81,30.08,29.78,7,1,9,0.02
2013-8-27,80.5,68.0,59.2,70.0,63.8,59.0,98,87,66,29.83,29.76,6,1,8,0.02
2013-8-28,77.2,66.1,60.3,68.0,63.7,60.0,99,92,73,29.93,29.81,9,2,10,0.14
2013-8-29,65.9,62.1,54.1,64.0,59.2,53.0,95,90,81,30.04,29.93,18,10,20,0.02
2013-8-30,71.6,60.3,51.2,64.0,57.2,50.0,98,89,71,29.93,29.70,5,1,10,0.00
2013-8-31,77.5,66.9,61.6,70.0,64.9,61.0,99,93,75,29.77,29.69,6,1,11,0.15
2013-9-1,77.8,68.5,64.1,72.0,67.0,64.0,100,95,80,29.88,29.69,5,0,6,0.03
2013-9-2,65.6,64.0,62.2,65.0,63.6,62.0,99,98,97,29.90,29.86,20,11,22,0.20
2013-9-14,67.0,60.6,55.0,61.0,57.4,53.0,94,89,78,29.92,29.78,1,0,4,0.00
2013-9-15,66.8,56.8,48.8,55.0,52.1,48.0,99,85,64,30.03,29.92,8,1,11,0.01
2013-9-16,63.3,55.0,44.6,57.0,51.5,36.0,99,88,71,30.16,29.88,13,2,24,0.01
2013-9-17,63.4,50.1,38.6,49.0,42.5,36.0,96,76,52,30.28,30.16,13,3,18,0.01
2013-9-18,68.9,55.3,42.9,53.0,48.5,42.0,99,81,46,30.20,30.00,4,1,9,0.00
2013-9-19,75.1,58.1,45.8,59.0,51.4,45.0,99,81,47,30.03,29.92,5,1,10,0.01
2013-9-20,74.6,59.2,48.3,61.0,53.2,48.0,99,83,53,30.02,29.94,8,1,10,0.01
2013-9-21,65.4,59.0,51.8,61.0,57.6,51.0,99,95,84,29.98,29.74,7,1,12,0.01
2013-9-22,65.4,61.5,55.2,64.0,60.4,51.0,99,96,86,29.74,29.53,15,2,17,0.58
2013-9-23,57.5,51.2,45.4,51.0,44.8,42.0,94,79,66,29.80,29.62,8,2,15,0.58
2013-9-24,52.2,49.9,46.6,47.0,44.5,42.0,91,82,74,29.79,29.71,5,1,12,0.04
2013-9-25,58.6,52.8,48.8,50.0,47.8,46.0,91,83,71,29.86,29.73,14,3,17,0.01
2013-9-26,60.0,55.0,48.6,53.0,49.9,46.0,93,83,72,30.03,29.87,18,5,20,0.01
2013-9-27,67.3,58.3,50.6,56.0,53.0,50.0,97,83,62,30.16,30.03,10,4,17,0.00
2013-9-28,69.8,55.4,47.6,58.0,51.4,47.0,99,87,58,30.26,30.16,4,0,7,0.01
2013-9-29,66.2,53.2,44.0,56.0,49.7,44.0,99,89,62,30.19,30.05,4,0,6,0.01
2013-9-30,62.7,53.0,44.4,54.0,50.3,44.0,99,91,62,30.07,29.89,6,1,9,0.01
2013-10-1,70.4,59.5,52.8,59.0,53.5,50.0,97,82,53,29.88,29.72,11,3,14,0.00
2013-10-2,76.7,61.9,49.9,63.0,55.4,50.0,99,81,53,29.77,29.62,6,1,12,0.01
2013-10-3,72.8,60.6,49.6,53.0,49.4,46.0,88,68,44,29.96,29.77,7,1,14,0.00
2013-10-4,68.8,55.8,46.7,54.0,49.4,46.0,98,81,47,30.01,29.93,10,1,11,0.00
2013-10-5,61.0,54.3,49.0,51.0,47.0,43.0,94,77,58,30.08,30.01,8,2,10,0.00
2013-10-6,58.1,51.3,46.5,49.0,42.2,37.0,92,72,50,30.23,30.08,16,4,17,0.14
2013-10-7,64.0,57.9,48.3,63.0,56.4,46.0,99,94,91,30.17,29.73,11,3,17,0.10
2013-10-8,63.9,54.6,41.4,64.0,47.6,39.0,99,79,53,30.31,29.73,10,2,19,0.17
2013-10-9,60.0,47.0,37.7,47.0,41.5,37.0,98,83,52,30.41,30.29,4,1,10,0.00
2013-10-10,61.3,48.5,39.4,52.0,45.0,39.0,99,88,58,30.29,30.12,5,0,7,0.01
2013-10-11,68.7,54.2,44.7,57.0,50.3,44.0,99,88,60,30.13,30.04,6,1,9,0.01
2013-10-12,58.0,52.4,43.2,53.0,48.4,42.0,97,87,68,30.36,30.13,13,5,18,0.00
2013-10-13,58.3,48.7,41.9,48.0,44.6,41.0,98,86,63,30.40,30.32,6,1,8,0.01
2013-10-14,59.9,49.8,39.5,52.0,46.0,39.0,99,87,67,30.32,30.18,5,0,10,0.01
2013-10-15,63.8,54.1,48.5,55.0,51.1,48.0,98,90,69,30.20,30.14,5,0,7,0.01
2013-10-16,57.6,54.4,50.4,55.0,53.3,50.0,99,96,87,30.16,29.81,8,2,12,0.02
2013-10-17,60.1,55.0,52.0,58.0,54.3,52.0,99,97,89,29.81,29.68,4,0,8,0.03
2013-10-18,63.6,55.0,48.0,61.0,52.9,46.0,100,93,70,29.72,29.49,8,1,17,0.18
2013-10-19,62.4,52.4,42.6,51.0,45.8,41.0,96,80,51,29.84,29.71,7,1,13,0.18
2013-10-20,62.0,54.7,43.3,56.0,44.9,33.0,94,72,40,29.84,29.59,7,1,15,0.00
2013-10-21,58.9,49.2,39.3,47.0,40.0,35.0,95,72,44,29.98,29.84,9,1,17,0.00
2013-10-22,59.6,54.2,47.0,56.0,51.7,44.0,97,91,82,29.93,29.61,9,1,18,0.02
2013-10-23,53.6,44.4,37.1,43.0,38.4,33.0,98,81,50,29.69,29.49,5,0,8,0.01
2013-10-24,49.1,43.8,36.0,41.0,33.1,28.0,92,68,45,29.69,29.49,10,2,17,0.01
2013-10-25,51.8,43.1,36.1,36.0,32.9,29.0,87,68,50,29.98,29.69,7,1,12,0.00
2013-10-26,50.4,41.4,33.5,42.0,34.3,28.0,95,77,52,30.03,29.80,8,1,19,0.03
2013-10-27,54.1,46.6,41.1,46.0,41.2,39.0,96,82,62,29.80,29.69,5,1,16,0.04
2013-11-11,44.4,40.2,36.8,41.0,33.4,31.0,88,77,61,29.89,29.76,7,1,9,0.00
2013-11-12,46.3,34.5,26.3,40.0,23.9,17.0,83,66,56,29.98,29.73,9,2,19,0.00
2013-11-13,34.7,28.5,24.5,20.0,16.3,14.0,71,61,45,30.10,29.98,11,2,19,0.00
2013-11-14,46.0,37.4,29.7,33.0,27.7,19.0,95,69,51,30.01,29.87,7,1,13,0.00
2013-11-15,51.0,37.6,29.4,43.0,32.8,29.0,98,85,46,30.11,29.99,4,0,9,0.01
2013-11-16,48.2,37.8,30.6,41.0,34.7,30.0,97,89,74,30.28,30.11,8,1,9,0.01
2013-11-17,51.0,43.7,30.3,49.0,42.1,30.0,99,94,84,30.31,29.93,6,1,11,0.03
2013-11-18,57.5,51.5,41.0,57.0,50.4,41.0,99,96,85,29.92,29.39,19,2,26,0.47
2013-11-19,42.0,36.6,32.8,42.0,26.8,19.0,98,70,49,30.04,29.46,11,2,23,0.48
2013-11-20,37.4,31.0,24.9,19.0,14.3,8.0,73,52,31,30.53,30.05,10,2,20,0.00
2013-11-21,47.4,33.4,23.8,32.0,21.8,16.0,92,66,30,30.54,30.27,3,0,8,0.00
2013-11-22,41.8,34.6,28.4,32.0,29.2,24.0,92,81,51,30.26,29.69,2,0,6,0.00
2013-11-23,39.9,35.0,28.3,37.0,24.9,15.0,96,69,42,29.68,29.54,11,2,24,0.03
2013-11-24,28.3,22.7,19.9,19.0,9.1,6.0,69,56,48,29.81,29.52,11,4,24,0.00
2013-11-25,28.0,22.1,16.6,17.0,5.4,0.0,70,50,31,30.23,29.82,11,2,22,0.00
2013-11-26,36.1,31.8,25.4,35.0,27.9,17.0,96,86,61,30.24,30.13,3,1,10,0.06
2013-11-27,55.9,49.8,35.6,55.0,49.1,35.0,99,97,96,30.12,29.04,13,4,26,2.37
2013-11-28,41.6,30.3,20.0,41.0,21.7,9.0,98,72,50,30.28,29.16,17,4,22,2.39
2013-11-29,24.9,20.3,16.8,13.0,10.6,8.0,78,67,51,30.64,30.28,18,2,18,0.00
2013-11-30,34.6,22.1,12.7,28.0,15.3,10.0,90,76,50,30.73,30.36,7,1,14,0.00
2013-12-1,40.3,36.6,33.1,39.0,35.0,28.0,97,94,77,30.36,30.03,11,2,13,0.15
2013-12-2,43.3,39.8,35.5,42.0,39.0,35.0,98,97,95,30.03,29.85,12,7,16,0.01
2013-12-3,40.2,38.1,34.2,39.0,37.1,32.0,99,96,91,29.84,29.73,11,5,20,0.01
2013-12-4,41.8,34.5,28.0,32.0,29.4,26.0,92,82,66,30.13,29.73,9,2,17,0.00
2013-12-5,48.9,37.5,26.2,48.0,36.0,25.0,98,94,89,30.22,29.84,6,1,11,0.04
2013-12-6,49.9,43.4,35.1,50.0,42.6,33.0,99,97,89,30.01,29.76,7,0,11,0.06
2013-12-7,36.5,31.6,24.0,32.0,20.9,12.0,94,66,49,30.29,29.98,8,2,14,0.06
2013-12-8,26.6,22.4,18.5,15.0,11.2,8.0,77,63,48,30.52,30.30,11,1,15,0.00
2013-12-9,35.2,27.6,22.7,35.0,22.7,11.0,98,83,61,30.49,29.74,17,8,18,0.04
2013-12-10,33.8,28.6,20.7,33.0,26.1,14.0,98,91,68,29.79,29.63,6,1,10,0.01
2013-12-11,28.8,22.8,15.4,18.0,15.1,11.0,86,73,56,30.02,29.80,10,2,20,0.01
2013-12-12,19.2,13.5,7.1,15.0,3.2,-4.0,87,64,44,30.15,29.91,6,1,15,0.00
2013-12-13,23.2,16.3,3.9,12.0,4.0,-6.0,76,59,39,30.30,29.79,11,3,22,0.00
2013-12-14,12.6,6.5,-0.7,5.0,-4.3,-10.0,73,62,46,30.55,30.30,17,4,18,0.00
2013-12-15,25.9,16.5,10.7,25.0,14.8,6.0,96,93,75,30.36,29.26,25,10,31,0.00
2013-12-16,21.6,13.9,3.2,19.0,8.9,-4.0,94,81,65,30.11,29.55,11,2,18,0.00
2013-12-17,18.1,8.4,-4.8,17.0,2.9,-9.0,94,78,70,30.25,29.98,15,5,19,0.00
2013-12-18,21.6,18.3,12.6,20.0,17.0,11.0,95,94,93,29.97,29.73,18,6,22,0.00
2013-12-19,31.1,25.9,13.7,30.0,24.9,12.0,96,96,93,30.01,29.84,5,0,8,0.02
2013-12-20,34.4,30.6,24.8,34.0,30.0,24.0,98,97,96,30.08,29.84,8,2,10,0.07
2013-12-21,34.2,31.4,28.1,34.0,31.0,28.0,99,98,96,29.90,29.75,15,4,16,0.12
2013-12-22,33.3,31.7,29.6,33.0,30.9,29.0,97,96,95,30.02,29.82,16,1,17,0.07
2013-12-23,34.1,31.8,29.2,34.0,31.3,29.0,98,98,97,30.04,29.89,3,0,9,0.15
2013-12-24,32.6,22.7,11.2,32.0,20.3,8.0,98,90,86,30.06,29.96,8,2,17,0.16
2013-12-25,18.2,11.5,8.1,14.0,8.4,5.0,92,87,82,30.49,30.06,12,2,21,0.00
2013-12-26,30.6,21.6,13.0,30.0,20.4,11.0,98,95,90,30.46,29.97,8,4,13,0.00
2013-12-27,29.1,22.1,13.4,27.0,20.4,12.0,96,93,90,30.11,29.99,4,1,8,0.04
2013-12-28,34.7,27.5,15.7,33.0,26.4,14.0,97,95,91,30.09,29.84,4,0,7,0.01
2013-12-29,34.6,31.9,28.0,34.0,30.4,-99.9,99,97,97,29.96,29.42,12,-8,15,0.39
2013-12-30,29.4,19.2,4.4,29.0,17.3,0.0,98,92,80,30.10,29.39,13,0,20,0.39
2013-12-31,9.8,4.5,-1.4,5.0,0.8,-5.0,90,84,74,30.11,29.97,10,2,13,0.00
2014-1-1,18.6,8.8,-0.2,12.0,4.6,-3.0,91,83,68,30.36,30.03,7,1,18,0.00
2014-1-2,3.2,-0.9,-3.5,-1.0,-4.0,-7.0,89,87,78,30.42,29.95,28,15,31,0.00